KI0MQ Weather Reports


Display with metric or nautical units.
time (UTC)temp
F
wind
direction
speed
MPH
gust
MPH
rain 1hr
in
rain 24hr
in
rain mn
in
humidity
%
barometer
mb
20260510211508 73 325 3.0 12.0 0.00 0.00 0.00 32 1019.4
20260510211004 74 324 3.0 12.0 0.00 0.00 0.00 32 1019.6
20260510210503 75 318 2.0 10.0 0.00 0.00 0.00 32 1019.5
20260510210008 76 283 1.0 5.0 0.00 0.00 0.00 31 1019.6
20260510205503 76 199 1.0 3.0 0.00 0.00 0.00 34 1019.6
20260510205003 75 206 1.0 4.0 0.00 0.00 0.00 36 1019.7
20260510204508 75 230 2.0 7.0 0.00 0.00 0.00 34 1019.7
20260510204005 75 292 1.0 7.0 0.00 0.00 0.00 36 1019.6
20260510203504 75 337 1.0 5.0 0.00 0.00 0.00 31 1019.7
20260510203008 74 313 2.0 8.0 0.00 0.00 0.00 31 1019.7
20260510202004 75 322 1.0 4.0 0.00 0.00 0.00 35 1020.0
20260510201003 74 232 1.0 3.0 0.00 0.00 0.00 31 1020.1
20260510200503 75 261 1.0 3.0 0.00 0.00 0.00 30 1020.2
20260510200009 74 279 1.0 5.0 0.00 0.00 0.00 32 1020.2
20260510195503 74 258 2.0 5.0 0.00 0.00 0.00 31 1020.3
20260510194508 75 259 2.0 6.0 0.00 0.00 0.00 34 1020.4
20260510194003 74 295 1.0 9.0 0.00 0.00 0.00 31 1020.5
20260510193503 75 284 1.0 9.0 0.00 0.00 0.00 31 1020.6
20260510193009 74 242 2.0 5.0 0.00 0.00 0.00 33 1020.6
20260510192503 75 257 2.0 8.0 0.00 0.00 0.00 33 1020.8
20260510192004 74 274 2.0 8.0 0.00 0.00 0.00 32 1020.7
20260510191509 73 357 2.0 7.0 0.00 0.00 0.00 32 1020.6
20260510191004 73 350 2.0 7.0 0.00 0.00 0.00 32 1020.8
20260510190503 74 257 1.0 5.0 0.00 0.00 0.00 34 1020.9
20260510185503 73 202 2.0 5.0 0.00 0.00 0.00 36 1021.0
20260510185003 73 218 2.0 5.0 0.00 0.00 0.00 33 1021.0
20260510184507 73 250 1.0 4.0 0.00 0.00 0.00 32 1021.1
20260510184004 72 331 2.0 6.0 0.00 0.00 0.00 32 1021.2
20260510183503 72 1 2.0 8.0 0.00 0.00 0.00 32 1021.2
20260510182503 73 203 1.0 3.0 0.00 0.00 0.00 35 1021.3
20260510182003 73 241 1.0 4.0 0.00 0.00 0.00 36 1021.4
20260510181508 73 279 1.0 4.0 0.00 0.00 0.00 34 1021.4
20260510181003 72 245 1.0 4.0 0.00 0.00 0.00 35 1021.5
20260510180504 71 282 1.0 6.0 0.00 0.00 0.00 35 1021.6
20260510180008 70 324 1.0 6.0 0.00 0.00 0.00 34 1021.7
20260510175503 70 325 1.0 5.0 0.00 0.00 0.00 35 1021.7
20260510175003 70 261 1.0 5.0 0.00 0.00 0.00 34 1021.8
20260510174508 70 253 1.0 5.0 0.00 0.00 0.00 36 1021.8
20260510174004 69 243 1.0 4.0 0.00 0.00 0.00 35 1021.8
20260510173503 69 235 0.0 2.0 0.00 0.00 0.00 38 1021.8
20260510173009 69 240 1.0 4.0 0.00 0.00 0.00 38 1021.8
20260510172004 67 320 2.0 6.0 0.00 0.00 0.00 36 1021.8
20260510171509 68 239 1.0 6.0 0.00 0.00 0.00 37 1021.9
20260510171003 67 331 1.0 4.0 0.00 0.00 0.00 38 1022.1
20260510170503 67 274 1.0 4.0 0.00 0.00 0.00 38 1022.1
20260510170008 67 202 1.0 2.0 0.00 0.00 0.00 38 1022.2
20260510165503 67 273 1.0 4.0 0.00 0.00 0.00 39 1022.3
20260510165003 66 292 1.0 4.0 0.00 0.00 0.00 41 1022.3
20260510164508 66 236 1.0 3.0 0.00 0.00 0.00 38 1022.3
20260510163008 65 250 2.0 4.0 0.00 0.00 0.00 38 1022.3
20260510162003 64 204 1.0 3.0 0.00 0.00 0.00 41 1022.2
20260510161508 64 264 1.0 3.0 0.00 0.00 0.00 42 1022.2
20260510161003 63 10 1.0 3.0 0.00 0.00 0.00 40 1022.2
20260510160503 63 200 1.0 4.0 0.00 0.00 0.00 41 1022.1
20260510160008 63 193 1.0 4.0 0.00 0.00 0.00 40 1022.3
20260510155503 63 193 1.0 3.0 0.00 0.00 0.00 39 1022.3
20260510155005 63 182 1.0 3.0 0.00 0.00 0.00 42 1022.2
20260510154508 62 160 1.0 3.0 0.00 0.00 0.00 42 1022.3
20260510154003 62 181 1.0 3.0 0.00 0.00 0.00 40 1022.3
20260510153009 61 243 1.0 3.0 0.00 0.00 0.00 41 1022.3
20260510152503 61 187 1.0 4.0 0.00 0.00 0.00 42 1022.3
20260510152004 61 183 1.0 4.0 0.00 0.00 0.00 42 1022.2
20260510151508 61 183 2.0 4.0 0.00 0.00 0.00 44 1022.2
20260510151003 60 181 2.0 4.0 0.00 0.00 0.00 42 1022.1
20260510150504 60 182 1.0 2.0 0.00 0.00 0.00 46 1022.1
20260510145504 59 188 2.0 5.0 0.00 0.00 0.00 47 1022.1
20260510145003 59 190 2.0 5.0 0.00 0.00 0.00 44 1022.1
20260510144508 59 185 2.0 6.0 0.00 0.00 0.00 45 1022.2
20260510144004 58 186 2.0 6.0 0.00 0.00 0.00 44 1022.2
20260510143009 57 191 1.0 3.0 0.00 0.00 0.00 47 1021.9
20260510142503 57 203 1.0 2.0 0.00 0.00 0.00 48 1021.9
20260510142004 57 199 1.0 2.0 0.00 0.00 0.00 47 1021.8
20260510141508 56 198 0.0 1.0 0.00 0.00 0.00 50 1021.8
20260510141004 56 198 0.0 1.0 0.00 0.00 0.00 48 1021.7
20260510140008 55 205 1.0 3.0 0.00 0.00 0.00 48 1021.5
20260510135504 54 294 0.0 2.0 0.00 0.00 0.00 49 1021.5
20260510135004 53 330 0.0 1.0 0.00 0.00 0.00 52 1021.6
20260510133503 52 330 0.0 1.0 0.00 0.00 0.00 53 1021.5
20260510133009 51 0 0.0 0.0 0.00 0.00 0.00 58 1021.4
20260510132003 50 331 0.0 1.0 0.00 0.00 0.00 61 1021.4
20260510131508 50 0 0.0 0.0 0.00 0.00 0.00 63 1021.4
20260510131004 49 0 0.0 0.0 0.00 0.00 0.00 64 1021.5
20260510130503 48 331 0.0 1.0 0.00 0.00 0.00 67 1021.4
20260510130008 48 331 0.0 1.0 0.00 0.00 0.00 67 1021.3
20260510125505 47 0 0.0 0.0 0.00 0.00 0.00 69 1021.2
20260510125003 46 0 0.0 0.0 0.00 0.00 0.00 73 1021.3
20260510124508 45 0 0.0 0.0 0.00 0.00 0.00 72 1021.2
20260510124003 45 0 0.0 0.0 0.00 0.00 0.00 74 1021.2
20260510123009 44 0 0.0 0.0 0.00 0.00 0.00 77 1020.9
20260510122503 44 0 0.0 0.0 0.00 0.00 0.00 78 1020.9
20260510122003 43 0 0.0 0.0 0.00 0.00 0.00 80 1020.9
20260510121508 43 0 0.0 0.0 0.00 0.00 0.00 80 1020.8
20260510121004 43 0 0.0 0.0 0.00 0.00 0.00 82 1020.8
20260510120503 42 0 0.0 0.0 0.00 0.00 0.00 82 1020.8
20260510120008 42 0 0.0 0.0 0.00 0.00 0.00 82 1020.7
20260510115503 42 0 0.0 0.0 0.00 0.00 0.00 82 1020.7
20260510114003 42 0 0.0 0.0 0.00 0.00 0.00 81 1020.5
20260510113503 42 0 0.0 0.0 0.00 0.00 0.00 81 1020.5
20260510113009 42 0 0.0 0.0 0.00 0.00 0.00 80 1020.5
20260510112504 42 0 0.0 0.0 0.00 0.00 0.00 79 1020.5
20260510112004 42 0 0.0 0.0 0.00 0.00 0.00 79 1020.4
20260510111508 42 0 0.0 0.0 0.00 0.00 0.00 78 1020.4
20260510110503 42 0 0.0 0.0 0.00 0.00 0.00 78 1020.4
20260510105504 42 0 0.0 0.0 0.00 0.00 0.00 78 1020.4
20260510105003 42 0 0.0 0.0 0.00 0.00 0.00 78 1020.3
20260510104003 41 0 0.0 0.0 0.00 0.00 0.00 78 1020.3
20260510103503 41 0 0.0 0.0 0.00 0.00 0.00 78 1020.3
20260510102503 41 0 0.0 0.0 0.00 0.00 0.00 77 1020.3
20260510102004 42 0 0.0 0.0 0.00 0.00 0.00 77 1020.2
20260510101004 42 0 0.0 0.0 0.00 0.00 0.00 75 1019.9
20260510100504 42 0 0.0 0.0 0.00 0.00 0.00 75 1019.8
20260510100009 42 0 0.0 0.0 0.00 0.00 0.00 76 1019.8
20260510095003 42 0 0.0 0.0 0.00 0.00 0.00 76 1019.5
20260510093504 42 0 0.0 0.0 0.00 0.00 0.00 74 1019.5
20260510093009 42 0 0.0 0.0 0.00 0.00 0.00 74 1019.3
20260510092503 42 0 0.0 0.0 0.00 0.00 0.00 74 1019.3
20260510092003 42 0 0.0 0.0 0.00 0.00 0.00 74 1019.2
20260510091508 43 0 0.0 0.0 0.00 0.00 0.00 73 1019.2
20260510091003 42 0 0.0 0.0 0.00 0.00 0.00 74 1019.1
20260510090503 42 0 0.0 0.0 0.00 0.00 0.00 74 1019.0
20260510090008 42 0 0.0 0.0 0.00 0.00 0.00 74 1018.9
20260510085504 42 0 0.0 0.0 0.00 0.00 0.00 73 1018.9
20260510085005 42 0 0.0 0.0 0.00 0.00 0.00 72 1018.8
20260510084508 42 0 0.0 0.0 0.00 0.00 0.00 71 1018.8
20260510084003 43 0 0.0 0.0 0.00 0.00 0.00 69 1019.0
20260510083503 43 0 0.0 0.0 0.00 0.00 0.00 69 1018.8
20260510083008 44 0 0.0 0.0 0.00 0.00 0.00 69 1018.8
20260510082503 44 0 0.0 0.0 0.00 0.00 0.00 68 1018.9
20260510082003 44 0 0.0 0.0 0.00 0.00 0.00 66 1018.7
20260510081508 45 0 0.0 0.0 0.00 0.00 0.00 66 1018.6
20260510080504 45 0 0.0 0.0 0.00 0.00 0.00 65 1018.6
20260510080008 46 0 0.0 0.0 0.00 0.00 0.00 64 1018.8
20260510075504 46 0 0.0 0.0 0.00 0.00 0.00 63 1018.8
20260510074509 47 0 0.0 0.0 0.00 0.00 0.00 64 1018.6
20260510073504 47 0 0.0 0.0 0.00 0.00 0.00 63 1018.4
20260510073008 48 0 0.0 0.0 0.00 0.00 0.00 62 1018.3
20260510072503 48 0 0.0 0.0 0.00 0.00 0.00 61 1018.2
20260510071508 48 0 0.0 0.0 0.00 0.00 0.00 59 1018.2
20260510071003 49 0 0.0 0.0 0.00 0.00 0.00 58 1018.2
20260510070503 50 0 0.0 0.0 0.00 0.00 0.00 58 1018.1
20260510070008 50 0 0.0 0.0 0.00 0.00 0.00 56 1018.1
20260510065503 51 329 0.0 1.0 0.00 0.00 0.00 54 1018.0
20260510065004 51 335 0.0 3.0 0.00 0.00 0.00 54 1018.1
20260510064508 51 336 0.0 3.0 0.00 0.00 0.00 53 1018.1
20260510064004 51 353 0.0 2.0 0.00 0.00 0.00 54 1018.1
20260510062503 52 307 0.0 1.0 0.00 0.00 0.00 54 1017.9
20260510062004 52 307 0.0 1.0 0.00 0.00 0.00 53 1018.1
20260510061508 53 0 0.0 0.0 0.00 0.00 0.00 52 1018.0
20260510060504 54 332 0.0 1.0 0.00 0.00 0.00 49 1018.0
20260510055503 54 359 0.0 4.0 0.00 0.00 0.00 48 1017.6
20260510055004 55 7 0.0 2.0 0.00 0.00 0.00 47 1017.3
20260510054508 55 345 0.0 3.0 0.00 0.00 0.00 47 1017.1
20260510054003 55 351 1.0 4.0 0.00 0.00 0.00 47 1016.9
20260510053505 55 357 0.0 5.0 0.00 0.00 0.00 47 1016.8
20260510053008 55 355 0.0 5.0 0.00 0.00 0.00 47 1016.7
20260510052504 55 2 1.0 5.0 0.00 0.00 0.00 47 1016.5
20260510052003 56 8 0.0 3.0 0.00 0.00 0.00 47 1016.5
20260510051508 56 350 0.0 4.0 0.00 0.00 0.00 47 1016.4
20260510051004 56 1 0.0 4.0 0.00 0.00 0.00 47 1016.3
20260510050504 56 4 0.0 2.0 0.00 0.00 0.00 47 1016.4
20260510050010 56 352 0.0 2.0 0.00 0.00 0.00 47 1016.3
20260510045503 56 355 0.0 2.0 0.00 0.00 0.00 47 1016.3
20260510045003 57 358 0.0 2.0 0.00 0.00 0.00 47 1016.2
20260510044508 57 24 0.0 3.0 0.00 0.00 0.00 47 1016.1
20260510044004 57 54 0.0 3.0 0.00 0.00 0.00 47 1016.0
20260510043503 58 23 0.0 3.0 0.00 0.00 0.00 46 1015.9
20260510043009 58 7 1.0 6.0 0.00 0.00 0.00 46 1015.9
20260510042504 58 353 1.0 6.0 0.00 0.00 0.00 46 1015.8
20260510041508 58 357 1.0 3.0 0.00 0.00 0.00 45 1015.6
20260510041003 59 356 1.0 3.0 0.00 0.00 0.00 45 1015.6
20260510040504 59 2 0.0 3.0 0.00 0.00 0.00 45 1015.5
20260510040008 59 2 0.0 3.0 0.00 0.00 0.00 45 1015.3
20260510035503 60 353 1.0 3.0 0.00 0.00 0.00 45 1015.3
20260510035003 60 23 1.0 4.0 0.00 0.00 0.00 44 1015.2
20260510034509 60 31 1.0 4.0 0.00 0.00 0.00 44 1015.1
20260510034003 60 24 1.0 4.0 0.00 0.00 0.00 44 1015.0
20260510033503 60 14 1.0 6.0 0.00 0.00 0.00 44 1014.9
20260510032503 61 12 1.0 6.0 0.00 0.00 0.00 44 1014.7
20260510032003 61 7 1.0 6.0 0.00 0.00 0.00 44 1014.6
20260510031508 61 9 1.0 6.0 0.00 0.00 0.00 43 1014.6
20260510030008 62 12 1.0 6.0 0.00 0.00 0.00 43 1014.3
20260510025504 62 11 1.0 5.0 0.00 0.00 0.00 42 1014.1
20260510024508 62 353 0.0 3.0 0.00 0.00 0.00 43 1013.8
20260510024003 62 357 0.0 2.0 0.00 0.00 0.00 43 1013.6
20260510023008 63 355 0.0 2.0 0.00 0.00 0.00 43 1013.5
20260510022003 64 7 0.0 3.0 0.00 0.00 0.00 42 1013.3
20260510021508 64 5 1.0 3.0 0.00 0.00 0.00 41 1013.0
20260510021003 64 8 1.0 4.0 0.00 0.00 0.00 41 1012.9
20260510020503 65 10 1.0 7.0 0.00 0.00 0.00 41 1012.8
20260510020009 65 9 1.0 7.0 0.00 0.00 0.00 41 1012.8
20260510015003 66 355 1.0 4.0 0.00 0.00 0.00 41 1012.6
20260510014509 66 22 1.0 5.0 0.00 0.00 0.00 41 1012.4
20260510014003 66 31 1.0 5.0 0.00 0.00 0.00 41 1012.4
20260510013503 66 23 1.0 4.0 0.00 0.00 0.00 42 1012.2
20260510013009 67 16 1.0 6.0 0.00 0.00 0.00 42 1012.1
20260510012003 68 23 1.0 5.0 0.00 0.00 0.00 42 1011.8
20260510011509 68 19 1.0 4.0 0.00 0.00 0.00 43 1011.8
20260510011004 68 17 1.0 4.0 0.00 0.00 0.00 42 1011.6
20260510010503 69 24 1.0 4.0 0.00 0.00 0.00 44 1011.5
20260510010009 69 20 1.0 5.0 0.00 0.00 0.00 45 1011.3
20260510005503 69 12 1.0 5.0 0.00 0.00 0.00 44 1011.3
20260510005004 70 11 1.0 5.0 0.00 0.00 0.00 45 1011.2
20260510004509 70 19 2.0 6.0 0.00 0.00 0.00 44 1011.2
20260510004003 70 20 3.0 7.0 0.00 0.00 0.00 44 1011.1
20260510003503 70 16 3.0 9.0 0.00 0.00 0.00 44 1011.1
20260510003009 69 15 2.0 9.0 0.00 0.00 0.00 45 1011.1
20260510002003 69 15 2.0 5.0 0.00 0.00 0.00 46 1011.0
20260510001508 69 14 1.0 5.0 0.00 0.00 0.00 47 1010.9
20260510001004 69 24 1.0 6.0 0.00 0.00 0.00 48 1010.9
20260510000503 70 24 2.0 6.0 0.00 0.00 0.00 46 1011.0
20260510000008 70 18 1.0 6.0 0.00 0.00 0.00 47 1011.0
20260509235504 70 3 1.0 4.0 0.00 0.00 0.00 47 1011.0
20260509235003 70 341 1.0 3.0 0.00 0.00 0.00 49 1011.0
20260509234509 70 9 1.0 4.0 0.00 0.00 0.00 49 1011.0
20260509234004 70 2 2.0 8.0 0.00 0.00 0.00 48 1011.0
20260509233504 70 357 2.0 8.0 0.00 0.00 0.00 47 1011.0
20260509233008 70 357 2.0 8.0 0.00 0.00 0.00 48 1011.0
20260509232503 70 8 1.0 6.0 0.00 0.00 0.00 48 1011.0
20260509232005 70 10 2.0 6.0 0.00 0.00 0.00 48 1010.9
20260509231003 70 20 2.0 6.0 0.00 0.00 0.00 48 1010.9
20260509230503 70 11 2.0 6.0 0.00 0.00 0.00 48 1010.9
20260509230009 70 356 2.0 6.0 0.00 0.00 0.00 48 1010.9
20260509225503 70 4 2.0 8.0 0.00 0.00 0.00 48 1010.9
20260509223503 71 20 2.0 7.0 0.00 0.00 0.00 49 1010.7
20260509223008 71 7 3.0 11.0 0.00 0.00 0.00 48 1010.7
20260509222503 71 8 3.0 11.0 0.00 0.00 0.00 48 1010.7
20260509222004 71 3 2.0 9.0 0.00 0.00 0.00 47 1010.6
20260509221003 71 12 3.0 11.0 0.00 0.00 0.00 47 1010.6
20260509220008 71 12 4.0 12.0 0.00 0.00 0.00 47 1010.5
20260509215505 71 357 3.0 10.0 0.00 0.00 0.00 47 1010.3
20260509215003 71 9 4.0 10.0 0.00 0.00 0.00 47 1010.4
20260509214510 70 21 4.0 10.0 0.00 0.00 0.00 48 1010.2
20260509214003 70 23 4.0 10.0 0.00 0.00 0.00 47 1010.3
20260509213503 70 16 4.0 11.0 0.00 0.00 0.00 46 1010.3
20260509213010 71 8 3.0 11.0 0.00 0.00 0.00 46 1010.1
20260509212504 71 358 4.0 11.0 0.00 0.00 0.00 45 1010.1
20260509212003 71 355 4.0 12.0 0.00 0.00 0.00 45 1010.1